Regional Weather Roundup
Issued by NWS State College, PA

Home | Current Version | Previous Version | Text Only | Print | Product List | Glossary Off
Versions: 1 2 3 4 5 6 7 8 9 10 11 12 13 14 15 16 17 18 19 20 21 22 23 24 25 26 27 28 29 30 31 32 33 34 35 36 37 38 39 40 41 42 43 44 45 46 47 48 49 50

000
ASUS41 KCTP 062103
RWRCTP

REGIONAL WEATHER ROUNDUP
NATIONAL WEATHER SERVICE STATE COLLEGE PA
500 PM EDT MON JUL 06 2015

Note: "fair" indicates few or no clouds below 12,000 feet with no
significant weather and/or obstructions to visibility.

* = STATION THAT DOES NOT REPORT PRECIPITATION /E.G. RAIN...SNOW...ETC/
    THUNDER OR FOG.

PAZ002>004-007>009-013>016-020>023-029>032-062200-
WESTERN PENNSYLVANIA

CITY           SKY/WX    TMP DP  RH WIND       PRES   REMARKS
ERIE           PTSUNNY   74  64  71 CALM      30.04S
MEADVILLE      CLOUDY    77  66  68 VRB5      30.06S
FRANKLIN*      CLOUDY    75  66  73 E6        30.07F
NEW CASTLE     MOCLDY    80  70  71 CALM      30.04F
BEAVER COUNTY  MOSUNNY   81  70  69 CALM      30.04F
BUTLER*        MOSUNNY   79  70  73 SE5       30.05F
PITTSBURGH INT MOSUNNY   80  67  64 SE3       30.03F
PITTSBURGH     PTSUNNY   78  65  63 CALM      30.02F
INDIANA*       MOSUNNY   73  72  94 E7        30.10S
LATROBE        MOSUNNY   73  72  94 VRB6      30.05F
WASHINGTON CO* NOT AVBL
$$

PAZ004>006-010>012-017>019-024>028-033>037-041-042-045-046-049>053-062200-
CENTRAL PENNSYLVANIA

CITY           SKY/WX    TMP DP  RH WIND       PRES   REMARKS
BRADFORD       CLOUDY    74  65  73 S6        30.10F
DUBOIS         PTSUNNY   74  69  85 SE6       30.08F
CLEARFIELD     PTSUNNY   74  68  81 CALM      30.09F
JOHNSTOWN      PTSUNNY   73  66  78 E6        30.10F
ALTOONA        TSTM      72  68  87 S12G20    30.09S FOG
STATE COLLEGE  PTSUNNY   77  68  73 SE6       30.08F
WILLIAMSPORT   MOSUNNY   81  69  67 E9        30.05F
SELINSGROVE    PTSUNNY   82  69  64 SE8       30.06F
FT INDIANTOWN  NOT AVBL
CAPITAL CITY   LGT RAIN  76  72  87 CALM      30.06S FOG
HARRISBURG     PTSUNNY   79  72  79 W9        30.04F
YORK           MOSUNNY   82  70  66 S8        30.05F
$$

PAZ038>040-043-044-047-048-054-055-060>062-067>071-062200-
EASTERN PENNSYLVANIA

CITY           SKY/WX    TMP DP  RH WIND       PRES   REMARKS
SCRANTON       CLOUDY    82  64  54 CALM      30.10S
MOUNT POCONO   PTSUNNY   75  62  64 SE9       30.17S
ALLENTOWN      LGT RAIN  78  71  79 E8        30.09F
QUAKERTOWN*    MOCLDY    82  72  69 SE6       30.10F
READING        PTSUNNY   83  69  62 SE10G16   30.05F
LANCASTER      PTSUNNY   82  71  69 S9        30.06F
COATESVILLE    MOCLDY    81  73  78 CALM      30.09F
POTTSTOWN      PTSUNNY   82  71  69 VRB3      30.09F
BLUE BELL      MOSUNNY   86  72  62 S5        30.07F
DOYLESTOWN     MOSUNNY   82  69  64 S8        30.08F
WILLOW GROVE   NOT AVBL
NORTH PHILA    MOSUNNY   86  68  54 SE8       30.09F
PHILADELPHIA   PTSUNNY   86  69  56 S5        30.07F
$$


USA.gov is the U.S. government's official web portal to all federal, state and local government web resources and services.